owner,sensor,date,latitude,longitude,relative_humidity,qcFlag 
COMPS,ioos:station:USF.COMPS:SHP:1,2016-10-01T00:00:00Z,30.0600,-84.2910,52.3,1111122 
COMPS,ioos:station:USF.COMPS:SHP:1,2016-10-01T00:06:00Z,30.0600,-84.2910,52.68,1111122 
COMPS,ioos:station:USF.COMPS:SHP:1,2016-10-01T00:12:00Z,30.0600,-84.2910,53.81,1111122 
COMPS,ioos:station:USF.COMPS:SHP:1,2016-10-01T00:18:00Z,30.0600,-84.2910,53.25,1111122 
COMPS,ioos:station:USF.COMPS:SHP:1,2016-10-01T00:24:00Z,30.0600,-84.2910,54.53,1111122 
COMPS,ioos:station:USF.COMPS:SHP:1,2016-10-01T00:30:00Z,30.0600,-84.2910,54.69,1111122 
COMPS,ioos:station:USF.COMPS:SHP:1,2016-10-01T00:36:00Z,30.0600,-84.2910,55.88,1111122 
COMPS,ioos:station:USF.COMPS:SHP:1,2016-10-01T00:42:00Z,30.0600,-84.2910,56.32,1111122 
COMPS,ioos:station:USF.COMPS:SHP:1,2016-10-01T00:48:00Z,30.0600,-84.2910,56.09,1111122 
COMPS,ioos:station:USF.COMPS:SHP:1,2016-10-01T00:54:00Z,30.0600,-84.2910,57.4,1111122 
COMPS,ioos:station:USF.COMPS:SHP:1,2016-10-01T01:00:00Z,30.0600,-84.2910,60.9,1111122 
COMPS,ioos:station:USF.COMPS:SHP:1,2016-10-01T01:06:00Z,30.0600,-84.2910,64.52,1111122 
COMPS,ioos:station:USF.COMPS:SHP:1,2016-10-01T01:12:00Z,30.0600,-84.2910,68.47,1111122 
COMPS,ioos:station:USF.COMPS:SHP:1,2016-10-01T01:18:00Z,30.0600,-84.2910,70.34,1111122 
COMPS,ioos:station:USF.COMPS:SHP:1,2016-10-01T01:24:00Z,30.0600,-84.2910,69.73,1111122 
COMPS,ioos:station:USF.COMPS:SHP:1,2016-10-01T01:30:00Z,30.0600,-84.2910,69.17,1111122 
COMPS,ioos:station:USF.COMPS:SHP:1,2016-10-01T01:36:00Z,30.0600,-84.2910,70.11,1111122 
COMPS,ioos:station:USF.COMPS:SHP:1,2016-10-01T01:42:00Z,30.0600,-84.2910,71.1,1111122 
COMPS,ioos:station:USF.COMPS:SHP:1,2016-10-01T01:48:00Z,30.0600,-84.2910,70.48,1111122 
COMPS,ioos:station:USF.COMPS:SHP:1,2016-10-01T01:54:00Z,30.0600,-84.2910,71.25,1111122 
COMPS,ioos:station:USF.COMPS:SHP:1,2016-10-01T02:00:00Z,30.0600,-84.2910,70.91,1111122 
COMPS,ioos:station:USF.COMPS:SHP:1,2016-10-01T02:06:00Z,30.0600,-84.2910,68.02,1111122 
COMPS,ioos:station:USF.COMPS:SHP:1,2016-10-01T02:12:00Z,30.0600,-84.2910,67.56,1111122 
COMPS,ioos:station:USF.COMPS:SHP:1,2016-10-01T02:18:00Z,30.0600,-84.2910,66.23,1111122 
COMPS,ioos:station:USF.COMPS:SHP:1,2016-10-01T02:24:00Z,30.0600,-84.2910,66.1,1111122 
COMPS,ioos:station:USF.COMPS:SHP:1,2016-10-01T02:30:00Z,30.0600,-84.2910,62.65,1111122 
COMPS,ioos:station:USF.COMPS:SHP:1,2016-10-01T02:36:00Z,30.0600,-84.2910,59.64,1111122 
COMPS,ioos:station:USF.COMPS:SHP:1,2016-10-01T02:42:00Z,30.0600,-84.2910,61.14,1111122 
COMPS,ioos:station:USF.COMPS:SHP:1,2016-10-01T02:48:00Z,30.0600,-84.2910,63.06,1111122 
COMPS,ioos:station:USF.COMPS:SHP:1,2016-10-01T02:54:00Z,30.0600,-84.2910,64.98,1111122 
COMPS,ioos:station:USF.COMPS:SHP:1,2016-10-01T03:00:00Z,30.0600,-84.2910,64.61,1111122 
COMPS,ioos:station:USF.COMPS:SHP:1,2016-10-01T03:06:00Z,30.0600,-84.2910,61.57,1111122 
COMPS,ioos:station:USF.COMPS:SHP:1,2016-10-01T03:12:00Z,30.0600,-84.2910,60.86,1111122 
COMPS,ioos:station:USF.COMPS:SHP:1,2016-10-01T03:18:00Z,30.0600,-84.2910,59.86,1111122 
COMPS,ioos:station:USF.COMPS:SHP:1,2016-10-01T03:24:00Z,30.0600,-84.2910,60.05,1111122 
COMPS,ioos:station:USF.COMPS:SHP:1,2016-10-01T03:30:00Z,30.0600,-84.2910,60.56,1111122 
COMPS,ioos:station:USF.COMPS:SHP:1,2016-10-01T03:36:00Z,30.0600,-84.2910,64.42,1111122 
COMPS,ioos:station:USF.COMPS:SHP:1,2016-10-01T03:42:00Z,30.0600,-84.2910,62.72,1111122 
COMPS,ioos:station:USF.COMPS:SHP:1,2016-10-01T03:48:00Z,30.0600,-84.2910,60.48,1111122 
COMPS,ioos:station:USF.COMPS:SHP:1,2016-10-01T03:54:00Z,30.0600,-84.2910,63.36,1111122 
COMPS,ioos:station:USF.COMPS:SHP:1,2016-10-01T04:00:00Z,30.0600,-84.2910,61.94,1111122 
COMPS,ioos:station:USF.COMPS:SHP:1,2016-10-01T04:06:00Z,30.0600,-84.2910,60.11,1111122 
COMPS,ioos:station:USF.COMPS:SHP:1,2016-10-01T04:12:00Z,30.0600,-84.2910,57.84,1111122 
COMPS,ioos:station:USF.COMPS:SHP:1,2016-10-01T04:18:00Z,30.0600,-84.2910,59.99,1111122 
COMPS,ioos:station:USF.COMPS:SHP:1,2016-10-01T04:24:00Z,30.0600,-84.2910,60.26,1111122 
COMPS,ioos:station:USF.COMPS:SHP:1,2016-10-01T04:30:00Z,30.0600,-84.2910,60.43,1111122 
COMPS,ioos:station:USF.COMPS:SHP:1,2016-10-01T04:36:00Z,30.0600,-84.2910,62.03,1111122 
COMPS,ioos:station:USF.COMPS:SHP:1,2016-10-01T04:42:00Z,30.0600,-84.2910,63.67,1111122 
COMPS,ioos:station:USF.COMPS:SHP:1,2016-10-01T04:48:00Z,30.0600,-84.2910,64.74,1111122 
COMPS,ioos:station:USF.COMPS:SHP:1,2016-10-01T04:54:00Z,30.0600,-84.2910,66.15,1111122 
COMPS,ioos:station:USF.COMPS:SHP:1,2016-10-01T05:00:00Z,30.0600,-84.2910,64.6,1111122 
COMPS,ioos:station:USF.COMPS:SHP:1,2016-10-01T05:06:00Z,30.0600,-84.2910,67.42,1111122 
COMPS,ioos:station:USF.COMPS:SHP:1,2016-10-01T05:12:00Z,30.0600,-84.2910,68.52,1111122 
COMPS,ioos:station:USF.COMPS:SHP:1,2016-10-01T05:18:00Z,30.0600,-84.2910,68.04,1111122 
COMPS,ioos:station:USF.COMPS:SHP:1,2016-10-01T05:24:00Z,30.0600,-84.2910,64.33,1111122 
COMPS,ioos:station:USF.COMPS:SHP:1,2016-10-01T05:30:00Z,30.0600,-84.2910,63.9,1111122 
COMPS,ioos:station:USF.COMPS:SHP:1,2016-10-01T05:36:00Z,30.0600,-84.2910,64.73,1111122 
COMPS,ioos:station:USF.COMPS:SHP:1,2016-10-01T05:42:00Z,30.0600,-84.2910,65.07,1111122 
COMPS,ioos:station:USF.COMPS:SHP:1,2016-10-01T05:48:00Z,30.0600,-84.2910,63.97,1111122 
COMPS,ioos:station:USF.COMPS:SHP:1,2016-10-01T05:54:00Z,30.0600,-84.2910,62.62,1111122 
COMPS,ioos:station:USF.COMPS:SHP:1,2016-10-01T06:00:00Z,30.0600,-84.2910,62.37,1111122 
COMPS,ioos:station:USF.COMPS:SHP:1,2016-10-01T06:06:00Z,30.0600,-84.2910,64.85,1111122 
COMPS,ioos:station:USF.COMPS:SHP:1,2016-10-01T06:12:00Z,30.0600,-84.2910,66.53,1111122 
COMPS,ioos:station:USF.COMPS:SHP:1,2016-10-01T06:18:00Z,30.0600,-84.2910,66.47,1111122 
COMPS,ioos:station:USF.COMPS:SHP:1,2016-10-01T06:24:00Z,30.0600,-84.2910,66.3,1111122 
COMPS,ioos:station:USF.COMPS:SHP:1,2016-10-01T06:30:00Z,30.0600,-84.2910,68.15,1111122 
COMPS,ioos:station:USF.COMPS:SHP:1,2016-10-01T06:36:00Z,30.0600,-84.2910,68.04,1111122 
COMPS,ioos:station:USF.COMPS:SHP:1,2016-10-01T06:42:00Z,30.0600,-84.2910,69.23,1111122 
COMPS,ioos:station:USF.COMPS:SHP:1,2016-10-01T06:48:00Z,30.0600,-84.2910,70.19,1111122 
COMPS,ioos:station:USF.COMPS:SHP:1,2016-10-01T06:54:00Z,30.0600,-84.2910,70.85,1111122 
COMPS,ioos:station:USF.COMPS:SHP:1,2016-10-01T07:00:00Z,30.0600,-84.2910,70.9,1111122 
COMPS,ioos:station:USF.COMPS:SHP:1,2016-10-01T07:06:00Z,30.0600,-84.2910,71.16,1111122 
COMPS,ioos:station:USF.COMPS:SHP:1,2016-10-01T07:12:00Z,30.0600,-84.2910,71.65,1111122 
COMPS,ioos:station:USF.COMPS:SHP:1,2016-10-01T07:18:00Z,30.0600,-84.2910,73.04,1111122 
COMPS,ioos:station:USF.COMPS:SHP:1,2016-10-01T07:24:00Z,30.0600,-84.2910,73.06,1111122 
COMPS,ioos:station:USF.COMPS:SHP:1,2016-10-01T07:30:00Z,30.0600,-84.2910,73.32,1111122 
COMPS,ioos:station:USF.COMPS:SHP:1,2016-10-01T07:36:00Z,30.0600,-84.2910,73.47,1111122 
COMPS,ioos:station:USF.COMPS:SHP:1,2016-10-01T07:42:00Z,30.0600,-84.2910,72.95,1111122 
COMPS,ioos:station:USF.COMPS:SHP:1,2016-10-01T07:48:00Z,30.0600,-84.2910,73.92,1111122 
COMPS,ioos:station:USF.COMPS:SHP:1,2016-10-01T07:54:00Z,30.0600,-84.2910,74.74,1111122 
COMPS,ioos:station:USF.COMPS:SHP:1,2016-10-01T08:00:00Z,30.0600,-84.2910,75.46,1111122 
COMPS,ioos:station:USF.COMPS:SHP:1,2016-10-01T08:06:00Z,30.0600,-84.2910,74.47,1111122 
COMPS,ioos:station:USF.COMPS:SHP:1,2016-10-01T08:12:00Z,30.0600,-84.2910,74.29,1111122 
COMPS,ioos:station:USF.COMPS:SHP:1,2016-10-01T08:18:00Z,30.0600,-84.2910,76.17,1111122 
COMPS,ioos:station:USF.COMPS:SHP:1,2016-10-01T08:24:00Z,30.0600,-84.2910,76.82,1111122 
COMPS,ioos:station:USF.COMPS:SHP:1,2016-10-01T08:30:00Z,30.0600,-84.2910,76.29,1111122 
COMPS,ioos:station:USF.COMPS:SHP:1,2016-10-01T08:36:00Z,30.0600,-84.2910,76.0,1111122 
COMPS,ioos:station:USF.COMPS:SHP:1,2016-10-01T08:42:00Z,30.0600,-84.2910,75.52,1111122 
COMPS,ioos:station:USF.COMPS:SHP:1,2016-10-01T08:48:00Z,30.0600,-84.2910,75.26,1111122 
COMPS,ioos:station:USF.COMPS:SHP:1,2016-10-01T08:54:00Z,30.0600,-84.2910,75.74,1111122 
COMPS,ioos:station:USF.COMPS:SHP:1,2016-10-01T09:00:00Z,30.0600,-84.2910,76.02,1111122 
COMPS,ioos:station:USF.COMPS:SHP:1,2016-10-01T09:06:00Z,30.0600,-84.2910,75.92,1111122 
COMPS,ioos:station:USF.COMPS:SHP:1,2016-10-01T09:12:00Z,30.0600,-84.2910,76.47,1111122 
COMPS,ioos:station:USF.COMPS:SHP:1,2016-10-01T09:18:00Z,30.0600,-84.2910,76.69,1111122 
COMPS,ioos:station:USF.COMPS:SHP:1,2016-10-01T09:24:00Z,30.0600,-84.2910,77.15,1111122 
COMPS,ioos:station:USF.COMPS:SHP:1,2016-10-01T09:30:00Z,30.0600,-84.2910,76.68,1111122 
COMPS,ioos:station:USF.COMPS:SHP:1,2016-10-01T09:36:00Z,30.0600,-84.2910,76.06,1111122 
COMPS,ioos:station:USF.COMPS:SHP:1,2016-10-01T09:42:00Z,30.0600,-84.2910,76.42,1111122 
COMPS,ioos:station:USF.COMPS:SHP:1,2016-10-01T09:48:00Z,30.0600,-84.2910,76.38,1111122 
COMPS,ioos:station:USF.COMPS:SHP:1,2016-10-01T09:54:00Z,30.0600,-84.2910,75.03,1111122 
COMPS,ioos:station:USF.COMPS:SHP:1,2016-10-01T10:00:00Z,30.0600,-84.2910,75.4,1111122 
COMPS,ioos:station:USF.COMPS:SHP:1,2016-10-01T10:06:00Z,30.0600,-84.2910,75.75,1111122 
COMPS,ioos:station:USF.COMPS:SHP:1,2016-10-01T10:12:00Z,30.0600,-84.2910,76.09,1111122 
COMPS,ioos:station:USF.COMPS:SHP:1,2016-10-01T10:18:00Z,30.0600,-84.2910,76.12,1111122 
COMPS,ioos:station:USF.COMPS:SHP:1,2016-10-01T10:24:00Z,30.0600,-84.2910,76.17,1111122 
COMPS,ioos:station:USF.COMPS:SHP:1,2016-10-01T10:30:00Z,30.0600,-84.2910,77.1,1111122 
COMPS,ioos:station:USF.COMPS:SHP:1,2016-10-01T10:36:00Z,30.0600,-84.2910,78.17,1111122 
COMPS,ioos:station:USF.COMPS:SHP:1,2016-10-01T10:42:00Z,30.0600,-84.2910,80.17,1111122 
COMPS,ioos:station:USF.COMPS:SHP:1,2016-10-01T10:48:00Z,30.0600,-84.2910,79.59,1111122 
COMPS,ioos:station:USF.COMPS:SHP:1,2016-10-01T10:54:00Z,30.0600,-84.2910,78.76,1111122 
COMPS,ioos:station:USF.COMPS:SHP:1,2016-10-01T11:00:00Z,30.0600,-84.2910,77.39,1111122 
COMPS,ioos:station:USF.COMPS:SHP:1,2016-10-01T11:06:00Z,30.0600,-84.2910,76.33,1111122 
COMPS,ioos:station:USF.COMPS:SHP:1,2016-10-01T11:12:00Z,30.0600,-84.2910,77.75,1111122 
COMPS,ioos:station:USF.COMPS:SHP:1,2016-10-01T11:18:00Z,30.0600,-84.2910,78.92,1111122 
COMPS,ioos:station:USF.COMPS:SHP:1,2016-10-01T11:24:00Z,30.0600,-84.2910,77.83,1111122 
COMPS,ioos:station:USF.COMPS:SHP:1,2016-10-01T11:30:00Z,30.0600,-84.2910,77.05,1111122 
COMPS,ioos:station:USF.COMPS:SHP:1,2016-10-01T11:36:00Z,30.0600,-84.2910,77.41,1111122 
COMPS,ioos:station:USF.COMPS:SHP:1,2016-10-01T11:42:00Z,30.0600,-84.2910,76.64,1111122 
COMPS,ioos:station:USF.COMPS:SHP:1,2016-10-01T11:48:00Z,30.0600,-84.2910,76.69,1111122 
COMPS,ioos:station:USF.COMPS:SHP:1,2016-10-01T11:54:00Z,30.0600,-84.2910,76.56,1111122 
COMPS,ioos:station:USF.COMPS:SHP:1,2016-10-01T12:00:00Z,30.0600,-84.2910,74.77,1111122 
COMPS,ioos:station:USF.COMPS:SHP:1,2016-10-01T12:06:00Z,30.0600,-84.2910,73.39,1111122 
COMPS,ioos:station:USF.COMPS:SHP:1,2016-10-01T12:12:00Z,30.0600,-84.2910,72.61,1111122 
COMPS,ioos:station:USF.COMPS:SHP:1,2016-10-01T12:18:00Z,30.0600,-84.2910,72.11,1111122 
COMPS,ioos:station:USF.COMPS:SHP:1,2016-10-01T12:24:00Z,30.0600,-84.2910,71.62,1111122 
COMPS,ioos:station:USF.COMPS:SHP:1,2016-10-01T12:30:00Z,30.0600,-84.2910,71.74,1111122 
COMPS,ioos:station:USF.COMPS:SHP:1,2016-10-01T12:36:00Z,30.0600,-84.2910,71.35,1111122 
COMPS,ioos:station:USF.COMPS:SHP:1,2016-10-01T12:42:00Z,30.0600,-84.2910,70.69,1111122 
COMPS,ioos:station:USF.COMPS:SHP:1,2016-10-01T12:48:00Z,30.0600,-84.2910,69.44,1111122 
COMPS,ioos:station:USF.COMPS:SHP:1,2016-10-01T12:54:00Z,30.0600,-84.2910,69.02,1111122 
COMPS,ioos:station:USF.COMPS:SHP:1,2016-10-01T13:00:00Z,30.0600,-84.2910,69.12,1111122 
COMPS,ioos:station:USF.COMPS:SHP:1,2016-10-01T13:06:00Z,30.0600,-84.2910,67.39,1111122 
COMPS,ioos:station:USF.COMPS:SHP:1,2016-10-01T13:12:00Z,30.0600,-84.2910,66.76,1111122 
COMPS,ioos:station:USF.COMPS:SHP:1,2016-10-01T13:18:00Z,30.0600,-84.2910,66.3,1111122 
COMPS,ioos:station:USF.COMPS:SHP:1,2016-10-01T13:24:00Z,30.0600,-84.2910,66.45,1111122 
COMPS,ioos:station:USF.COMPS:SHP:1,2016-10-01T13:30:00Z,30.0600,-84.2910,65.77,1111122 
COMPS,ioos:station:USF.COMPS:SHP:1,2016-10-01T13:36:00Z,30.0600,-84.2910,63.48,1111122 
COMPS,ioos:station:USF.COMPS:SHP:1,2016-10-01T13:42:00Z,30.0600,-84.2910,61.09,1111122 
COMPS,ioos:station:USF.COMPS:SHP:1,2016-10-01T13:48:00Z,30.0600,-84.2910,60.94,1111122 
COMPS,ioos:station:USF.COMPS:SHP:1,2016-10-01T13:54:00Z,30.0600,-84.2910,59.33,1111122 
COMPS,ioos:station:USF.COMPS:SHP:1,2016-10-01T14:00:00Z,30.0600,-84.2910,59.22,1111122 
COMPS,ioos:station:USF.COMPS:SHP:1,2016-10-01T14:06:00Z,30.0600,-84.2910,61.96,1111122 
COMPS,ioos:station:USF.COMPS:SHP:1,2016-10-01T14:12:00Z,30.0600,-84.2910,61.18,1111122 
COMPS,ioos:station:USF.COMPS:SHP:1,2016-10-01T14:18:00Z,30.0600,-84.2910,60.27,1111122 
COMPS,ioos:station:USF.COMPS:SHP:1,2016-10-01T14:24:00Z,30.0600,-84.2910,59.5,1111122 
COMPS,ioos:station:USF.COMPS:SHP:1,2016-10-01T14:30:00Z,30.0600,-84.2910,57.53,1111122 
COMPS,ioos:station:USF.COMPS:SHP:1,2016-10-01T14:36:00Z,30.0600,-84.2910,55.78,1111122 
COMPS,ioos:station:USF.COMPS:SHP:1,2016-10-01T14:42:00Z,30.0600,-84.2910,55.33,1111122 
COMPS,ioos:station:USF.COMPS:SHP:1,2016-10-01T14:48:00Z,30.0600,-84.2910,55.47,1111122 
COMPS,ioos:station:USF.COMPS:SHP:1,2016-10-01T14:54:00Z,30.0600,-84.2910,56.36,1111122 
COMPS,ioos:station:USF.COMPS:SHP:1,2016-10-01T15:00:00Z,30.0600,-84.2910,56.17,1111122 
COMPS,ioos:station:USF.COMPS:SHP:1,2016-10-01T15:06:00Z,30.0600,-84.2910,56.22,1111122 
COMPS,ioos:station:USF.COMPS:SHP:1,2016-10-01T15:12:00Z,30.0600,-84.2910,52.84,1111122 
COMPS,ioos:station:USF.COMPS:SHP:1,2016-10-01T15:18:00Z,30.0600,-84.2910,52.28,1111122 
COMPS,ioos:station:USF.COMPS:SHP:1,2016-10-01T15:24:00Z,30.0600,-84.2910,51.13,1111122 
COMPS,ioos:station:USF.COMPS:SHP:1,2016-10-01T15:30:00Z,30.0600,-84.2910,51.56,1111122 
COMPS,ioos:station:USF.COMPS:SHP:1,2016-10-01T15:36:00Z,30.0600,-84.2910,52.08,1111122 
COMPS,ioos:station:USF.COMPS:SHP:1,2016-10-01T15:42:00Z,30.0600,-84.2910,50.16,1111122 
COMPS,ioos:station:USF.COMPS:SHP:1,2016-10-01T15:48:00Z,30.0600,-84.2910,50.51,1111122 
COMPS,ioos:station:USF.COMPS:SHP:1,2016-10-01T15:54:00Z,30.0600,-84.2910,50.81,1111122 
COMPS,ioos:station:USF.COMPS:SHP:1,2016-10-01T16:00:00Z,30.0600,-84.2910,53.95,1111122 
COMPS,ioos:station:USF.COMPS:SHP:1,2016-10-01T16:06:00Z,30.0600,-84.2910,54.42,1111122 
COMPS,ioos:station:USF.COMPS:SHP:1,2016-10-01T16:12:00Z,30.0600,-84.2910,54.86,1111122 
COMPS,ioos:station:USF.COMPS:SHP:1,2016-10-01T16:18:00Z,30.0600,-84.2910,54.6,1111122 
COMPS,ioos:station:USF.COMPS:SHP:1,2016-10-01T16:24:00Z,30.0600,-84.2910,51.85,1111122 
COMPS,ioos:station:USF.COMPS:SHP:1,2016-10-01T16:30:00Z,30.0600,-84.2910,51.47,1111122 
COMPS,ioos:station:USF.COMPS:SHP:1,2016-10-01T16:36:00Z,30.0600,-84.2910,48.21,1111122 
COMPS,ioos:station:USF.COMPS:SHP:1,2016-10-01T16:42:00Z,30.0600,-84.2910,47.89,1111122 
COMPS,ioos:station:USF.COMPS:SHP:1,2016-10-01T16:48:00Z,30.0600,-84.2910,47.35,1111122 
COMPS,ioos:station:USF.COMPS:SHP:1,2016-10-01T16:54:00Z,30.0600,-84.2910,44.81,1111122 
COMPS,ioos:station:USF.COMPS:SHP:1,2016-10-01T17:00:00Z,30.0600,-84.2910,44.45,1111122 
COMPS,ioos:station:USF.COMPS:SHP:1,2016-10-01T17:06:00Z,30.0600,-84.2910,43.75,1111122 
COMPS,ioos:station:USF.COMPS:SHP:1,2016-10-01T17:12:00Z,30.0600,-84.2910,43.79,1111122 
COMPS,ioos:station:USF.COMPS:SHP:1,2016-10-01T17:18:00Z,30.0600,-84.2910,44.01,1111122 
COMPS,ioos:station:USF.COMPS:SHP:1,2016-10-01T17:24:00Z,30.0600,-84.2910,43.13,1111122 
COMPS,ioos:station:USF.COMPS:SHP:1,2016-10-01T17:30:00Z,30.0600,-84.2910,43.21,1111122 
COMPS,ioos:station:USF.COMPS:SHP:1,2016-10-01T17:36:00Z,30.0600,-84.2910,43.99,1111122 
COMPS,ioos:station:USF.COMPS:SHP:1,2016-10-01T17:42:00Z,30.0600,-84.2910,43.76,1111122 
COMPS,ioos:station:USF.COMPS:SHP:1,2016-10-01T17:48:00Z,30.0600,-84.2910,44.75,1111122 
COMPS,ioos:station:USF.COMPS:SHP:1,2016-10-01T17:54:00Z,30.0600,-84.2910,45.49,1111122 
COMPS,ioos:station:USF.COMPS:SHP:1,2016-10-01T18:00:00Z,30.0600,-84.2910,45.33,1111122 
COMPS,ioos:station:USF.COMPS:SHP:1,2016-10-01T18:06:00Z,30.0600,-84.2910,46.04,1111122 
COMPS,ioos:station:USF.COMPS:SHP:1,2016-10-01T18:12:00Z,30.0600,-84.2910,44.26,1111122 
COMPS,ioos:station:USF.COMPS:SHP:1,2016-10-01T18:18:00Z,30.0600,-84.2910,43.05,1111122 
COMPS,ioos:station:USF.COMPS:SHP:1,2016-10-01T18:24:00Z,30.0600,-84.2910,42.44,1111122 
COMPS,ioos:station:USF.COMPS:SHP:1,2016-10-01T18:30:00Z,30.0600,-84.2910,43.87,1111122 
COMPS,ioos:station:USF.COMPS:SHP:1,2016-10-01T18:36:00Z,30.0600,-84.2910,41.08,1111122 
COMPS,ioos:station:USF.COMPS:SHP:1,2016-10-01T18:42:00Z,30.0600,-84.2910,42.17,1111122 
COMPS,ioos:station:USF.COMPS:SHP:1,2016-10-01T18:48:00Z,30.0600,-84.2910,41.72,1111122 
COMPS,ioos:station:USF.COMPS:SHP:1,2016-10-01T18:54:00Z,30.0600,-84.2910,40.39,1111122 
COMPS,ioos:station:USF.COMPS:SHP:1,2016-10-01T19:00:00Z,30.0600,-84.2910,40.77,1111122 
COMPS,ioos:station:USF.COMPS:SHP:1,2016-10-01T19:06:00Z,30.0600,-84.2910,40.73,1111122 
COMPS,ioos:station:USF.COMPS:SHP:1,2016-10-01T19:12:00Z,30.0600,-84.2910,40.84,1111122 
COMPS,ioos:station:USF.COMPS:SHP:1,2016-10-01T19:18:00Z,30.0600,-84.2910,41.82,1111122 
COMPS,ioos:station:USF.COMPS:SHP:1,2016-10-01T19:24:00Z,30.0600,-84.2910,42.17,1111122 
COMPS,ioos:station:USF.COMPS:SHP:1,2016-10-01T19:30:00Z,30.0600,-84.2910,42.89,1111122 
COMPS,ioos:station:USF.COMPS:SHP:1,2016-10-01T19:36:00Z,30.0600,-84.2910,43.86,1111122 
COMPS,ioos:station:USF.COMPS:SHP:1,2016-10-01T19:42:00Z,30.0600,-84.2910,43.77,1111122 
COMPS,ioos:station:USF.COMPS:SHP:1,2016-10-01T19:48:00Z,30.0600,-84.2910,42.57,1111122 
COMPS,ioos:station:USF.COMPS:SHP:1,2016-10-01T19:54:00Z,30.0600,-84.2910,43.77,1111122 
COMPS,ioos:station:USF.COMPS:SHP:1,2016-10-01T20:00:00Z,30.0600,-84.2910,42.16,1111122 
COMPS,ioos:station:USF.COMPS:SHP:1,2016-10-01T20:06:00Z,30.0600,-84.2910,44.86,1111122 
COMPS,ioos:station:USF.COMPS:SHP:1,2016-10-01T20:12:00Z,30.0600,-84.2910,45.1,1111122 
COMPS,ioos:station:USF.COMPS:SHP:1,2016-10-01T20:18:00Z,30.0600,-84.2910,44.42,1111122 
COMPS,ioos:station:USF.COMPS:SHP:1,2016-10-01T20:24:00Z,30.0600,-84.2910,44.75,1111122 
COMPS,ioos:station:USF.COMPS:SHP:1,2016-10-01T20:30:00Z,30.0600,-84.2910,44.23,1111122 
COMPS,ioos:station:USF.COMPS:SHP:1,2016-10-01T20:36:00Z,30.0600,-84.2910,43.36,1111122 
COMPS,ioos:station:USF.COMPS:SHP:1,2016-10-01T20:42:00Z,30.0600,-84.2910,43.35,1111122 
COMPS,ioos:station:USF.COMPS:SHP:1,2016-10-01T20:48:00Z,30.0600,-84.2910,41.91,1111122 
COMPS,ioos:station:USF.COMPS:SHP:1,2016-10-01T20:54:00Z,30.0600,-84.2910,40.66,1111122 
COMPS,ioos:station:USF.COMPS:SHP:1,2016-10-01T21:00:00Z,30.0600,-84.2910,39.73,1111122 
COMPS,ioos:station:USF.COMPS:SHP:1,2016-10-01T21:06:00Z,30.0600,-84.2910,39.89,1111122 
COMPS,ioos:station:USF.COMPS:SHP:1,2016-10-01T21:12:00Z,30.0600,-84.2910,39.18,1111122 
COMPS,ioos:station:USF.COMPS:SHP:1,2016-10-01T21:18:00Z,30.0600,-84.2910,39.08,1111122 
COMPS,ioos:station:USF.COMPS:SHP:1,2016-10-01T21:24:00Z,30.0600,-84.2910,37.43,1111122 
COMPS,ioos:station:USF.COMPS:SHP:1,2016-10-01T21:30:00Z,30.0600,-84.2910,37.07,1111122 
COMPS,ioos:station:USF.COMPS:SHP:1,2016-10-01T21:36:00Z,30.0600,-84.2910,37.24,1111122 
COMPS,ioos:station:USF.COMPS:SHP:1,2016-10-01T21:42:00Z,30.0600,-84.2910,37.12,1111122 
COMPS,ioos:station:USF.COMPS:SHP:1,2016-10-01T21:48:00Z,30.0600,-84.2910,36.64,1111122 
COMPS,ioos:station:USF.COMPS:SHP:1,2016-10-01T21:54:00Z,30.0600,-84.2910,35.72,1111122 
COMPS,ioos:station:USF.COMPS:SHP:1,2016-10-01T22:00:00Z,30.0600,-84.2910,37.12,1111122 
COMPS,ioos:station:USF.COMPS:SHP:1,2016-10-01T22:06:00Z,30.0600,-84.2910,37.98,1111122 
COMPS,ioos:station:USF.COMPS:SHP:1,2016-10-01T22:12:00Z,30.0600,-84.2910,41.11,1111122 
COMPS,ioos:station:USF.COMPS:SHP:1,2016-10-01T22:18:00Z,30.0600,-84.2910,43.52,1111122 
COMPS,ioos:station:USF.COMPS:SHP:1,2016-10-01T22:24:00Z,30.0600,-84.2910,45.56,1111122 
COMPS,ioos:station:USF.COMPS:SHP:1,2016-10-01T22:30:00Z,30.0600,-84.2910,47.06,1111122 
COMPS,ioos:station:USF.COMPS:SHP:1,2016-10-01T22:36:00Z,30.0600,-84.2910,46.29,1111122 
COMPS,ioos:station:USF.COMPS:SHP:1,2016-10-01T22:42:00Z,30.0600,-84.2910,46.56,1111122 
COMPS,ioos:station:USF.COMPS:SHP:1,2016-10-01T22:48:00Z,30.0600,-84.2910,47.7,1111122 
COMPS,ioos:station:USF.COMPS:SHP:1,2016-10-01T22:54:00Z,30.0600,-84.2910,47.11,1111122 
COMPS,ioos:station:USF.COMPS:SHP:1,2016-10-01T23:00:00Z,30.0600,-84.2910,47.4,1111122 
COMPS,ioos:station:USF.COMPS:SHP:1,2016-10-01T23:06:00Z,30.0600,-84.2910,47.6,1111122 
COMPS,ioos:station:USF.COMPS:SHP:1,2016-10-01T23:12:00Z,30.0600,-84.2910,47.72,1111122 
COMPS,ioos:station:USF.COMPS:SHP:1,2016-10-01T23:18:00Z,30.0600,-84.2910,47.7,1111122 
COMPS,ioos:station:USF.COMPS:SHP:1,2016-10-01T23:24:00Z,30.0600,-84.2910,49.64,1111122 
COMPS,ioos:station:USF.COMPS:SHP:1,2016-10-01T23:30:00Z,30.0600,-84.2910,50.57,1111122 
COMPS,ioos:station:USF.COMPS:SHP:1,2016-10-01T23:36:00Z,30.0600,-84.2910,50.69,1111122 
COMPS,ioos:station:USF.COMPS:SHP:1,2016-10-01T23:42:00Z,30.0600,-84.2910,52.95,1111122 
COMPS,ioos:station:USF.COMPS:SHP:1,2016-10-01T23:48:00Z,30.0600,-84.2910,55.0,1111122 
COMPS,ioos:station:USF.COMPS:SHP:1,2016-10-01T23:54:00Z,30.0600,-84.2910,54.95,1111122 
COMPS,ioos:station:USF.COMPS:SHP:1,2016-10-02T00:00:00Z,30.0600,-84.2910,54.22,1111122 
COMPS,ioos:station:USF.COMPS:SHP:1,2016-10-02T00:06:00Z,30.0600,-84.2910,53.71,1111122 
COMPS,ioos:station:USF.COMPS:SHP:1,2016-10-02T00:12:00Z,30.0600,-84.2910,57.57,1111122 
COMPS,ioos:station:USF.COMPS:SHP:1,2016-10-02T00:18:00Z,30.0600,-84.2910,63.54,1111122 
COMPS,ioos:station:USF.COMPS:SHP:1,2016-10-02T00:24:00Z,30.0600,-84.2910,66.24,1111122 
COMPS,ioos:station:USF.COMPS:SHP:1,2016-10-02T00:30:00Z,30.0600,-84.2910,67.3,1111122 
COMPS,ioos:station:USF.COMPS:SHP:1,2016-10-02T00:36:00Z,30.0600,-84.2910,68.86,1111122 
COMPS,ioos:station:USF.COMPS:SHP:1,2016-10-02T00:42:00Z,30.0600,-84.2910,68.01,1111122 
COMPS,ioos:station:USF.COMPS:SHP:1,2016-10-02T00:48:00Z,30.0600,-84.2910,69.31,1111122 
COMPS,ioos:station:USF.COMPS:SHP:1,2016-10-02T00:54:00Z,30.0600,-84.2910,68.31,1111122 
COMPS,ioos:station:USF.COMPS:SHP:1,2016-10-02T01:00:00Z,30.0600,-84.2910,66.23,1111122 
COMPS,ioos:station:USF.COMPS:SHP:1,2016-10-02T01:06:00Z,30.0600,-84.2910,65.43,1111122 
COMPS,ioos:station:USF.COMPS:SHP:1,2016-10-02T01:12:00Z,30.0600,-84.2910,64.52,1111122 
COMPS,ioos:station:USF.COMPS:SHP:1,2016-10-02T01:18:00Z,30.0600,-84.2910,66.11,1111122 
COMPS,ioos:station:USF.COMPS:SHP:1,2016-10-02T01:24:00Z,30.0600,-84.2910,67.3,1111122 
COMPS,ioos:station:USF.COMPS:SHP:1,2016-10-02T01:30:00Z,30.0600,-84.2910,67.17,1111122 
COMPS,ioos:station:USF.COMPS:SHP:1,2016-10-02T01:36:00Z,30.0600,-84.2910,68.46,1111122 
COMPS,ioos:station:USF.COMPS:SHP:1,2016-10-02T01:42:00Z,30.0600,-84.2910,68.91,1111122 
COMPS,ioos:station:USF.COMPS:SHP:1,2016-10-02T01:48:00Z,30.0600,-84.2910,68.87,1111122 
COMPS,ioos:station:USF.COMPS:SHP:1,2016-10-02T01:54:00Z,30.0600,-84.2910,67.7,1111122 
COMPS,ioos:station:USF.COMPS:SHP:1,2016-10-02T02:00:00Z,30.0600,-84.2910,67.7,1111122 
COMPS,ioos:station:USF.COMPS:SHP:1,2016-10-02T02:06:00Z,30.0600,-84.2910,68.94,1111122 
COMPS,ioos:station:USF.COMPS:SHP:1,2016-10-02T02:12:00Z,30.0600,-84.2910,67.97,1111122 
COMPS,ioos:station:USF.COMPS:SHP:1,2016-10-02T02:18:00Z,30.0600,-84.2910,67.28,1111122 
COMPS,ioos:station:USF.COMPS:SHP:1,2016-10-02T02:24:00Z,30.0600,-84.2910,71.67,1111122 
COMPS,ioos:station:USF.COMPS:SHP:1,2016-10-02T02:30:00Z,30.0600,-84.2910,72.45,1111122 
COMPS,ioos:station:USF.COMPS:SHP:1,2016-10-02T02:36:00Z,30.0600,-84.2910,69.86,1111122 
COMPS,ioos:station:USF.COMPS:SHP:1,2016-10-02T02:42:00Z,30.0600,-84.2910,71.57,1111122 
COMPS,ioos:station:USF.COMPS:SHP:1,2016-10-02T02:48:00Z,30.0600,-84.2910,73.89,1111122 
COMPS,ioos:station:USF.COMPS:SHP:1,2016-10-02T02:54:00Z,30.0600,-84.2910,73.79,1111122 
COMPS,ioos:station:USF.COMPS:SHP:1,2016-10-02T03:00:00Z,30.0600,-84.2910,72.79,1111122 
COMPS,ioos:station:USF.COMPS:SHP:1,2016-10-02T03:06:00Z,30.0600,-84.2910,72.85,1111122 